www.pogodaiklimat.ru

Погода и климат >> Архив погоды >> Япония >> Мияконодзё


ПОГОДА в Мияконодзё

  • Прогноз погоды в Мияконодзё
  • Монитор погоды в Мияконодзё

АРХИВ ПОГОДЫ в Мияконодзё

Время (UTC), дата Ветер
(напр.,м/с)
 
Видим.   Явления Облачность Т
(С)
Тd
(С)
f
(%)
Тe
(С)
Тes
(С)
Комфортность P
(гПа)
Po
(гПа)
Тmin
(С)
Tmax
(С)
R
(мм)
R24
(мм)
S
(см)
03 16.09 СВ 2 20 км н/о +31.5 +21.4 55 +39 +39 очень
душно
1003.1 986.0
04 16.09 З 2 19 км н/о +32.2 +21.7 54 +41 +41 опасность
перегрева
1002.5 985.4
05 16.09 ЮЗ 2 18 км н/о +31.8 +21.3 54 +40 +40 очень
душно
1001.9 984.8
07 16.09 СВ 3 19 км н/о +30.9 +22.2 60 +40 +40 очень
душно
1001.6 984.5
08 16.09 Ю 3 15 км н/о +29.8 +23.3 68 +40 +40 очень
душно
1002.3 985.1
09 16.09 З 1 15 км н/о +28.4 +23.3 74 +38 +38 очень
душно
1003.0 985.7
10 16.09 З 2 15 км н/о +27.4 +22.6 75 +36 +36 очень
душно
1003.5 986.1
11 16.09 штиль 0 17 км н/о +27.0 +22.0 74 +35 +35 очень
душно
1004.2 986.8
12 16.09 З 1 20 км н/о +26.7 +21.5 73 +34 +34 очень
душно
1004.8 987.4 +33.1
13 16.09 ЮВ 1 16 км н/о +26.2 +22.5 80 +34 +34 очень
душно
1005.4 987.9
14 16.09 ЮВ 1 18 км н/о +25.7 +22.2 81 +33 +33 очень
душно
1005.4 987.9
15 16.09 СВ 2 20 км н/о +24.8 +20.5 77 +31 +31 очень
душно
1005.6 988.0
16 16.09 СВ 2 20 км н/о +24.1 +19.8 77 +29 +29 душно 1005.8 988.2
17 16.09 С 2 20 км н/о +23.7 +20.3 81 +29 +29 душно 1005.7 988.0
18 16.09 С 2 20 км н/о +23.1 +19.7 81 +30 +30 очень
душно
1005.6 987.9
19 16.09 СВ 1 20 км н/о +22.7 +19.7 83 +29 +29 очень
душно
1006.1 988.4
20 16.09 СВ 1 20 км н/о +22.1 +19.5 85 +28 +28 душно 1006.8 989.0
21 16.09 ЮВ 1 20 км н/о +21.6 +19.2 86 +27 +27 душно 1007.5 989.7
22 16.09 В 1 20 км н/о +22.2 +19.0 82 +28 +28 душно 1008.1 990.3
23 16.09 С 2 20 км н/о +24.7 +18.6 69 +29 +29 душно 1008.2 990.6
01 17.09 СВ 5 20 км н/о +28.3 +17.2 51 +32 +32 душно 1008.5 991.1
02 17.09 СВ 5 20 км н/о +28.9 +17.8 51 +33 +33 очень
душно
1008.3 990.9
03 17.09 СВ 4 20 км н/о +29.8 +18.9 52 +35 +35 очень
душно
1007.9 990.6
04 17.09 СВ 4 20 км н/о +30.3 +17.1 45 +34 +34 очень
душно
1007.4 990.1
05 17.09 СВ 3 20 км н/о +30.7 +17.4 45 +35 +35 очень
душно
1006.8 989.6
06 17.09 СВ 5 20 км н/о +30.3 +18.7 50 +35 +35 очень
душно
1006.7 989.4
07 17.09 СВ 5 20 км н/о +29.5 +18.3 51 +34 +34 очень
душно
1007.2 989.9
08 17.09 СВ 5 20 км н/о +28.4 +17.6 52 +33 +33 очень
душно
1007.6 990.2
09 17.09 СВ 4 20 км н/о +26.9 +19.3 63 +32 +32 очень
душно
1008.3 990.8
11 17.09 С 2 20 км н/о +25.4 +19.5 70 +31 +31 очень
душно
1009.4 991.8
12 17.09 Ю 1 20 км н/о +24.6 +19.7 74 +30 +30 очень
душно
1010.1 992.4 +31.3
13 17.09 Ю 1 20 км н/о +23.6 +20.0 80 +29 +29 душно 1010.3 992.6
14 17.09 ЮВ 2 20 км н/о +23.1 +19.3 79 +29 +29 очень
душно
1010.4 992.6
15 17.09 В 1 20 км н/о +22.6 +20.0 85 +29 +29 очень
душно
1010.4 992.6
16 17.09 В 2 20 км н/о +22.0 +19.6 86 +28 +28 душно 1010.0 992.2
18 17.09 С 2 18 км н/о +22.0 +20.1 89 +28 +28 душно 1009.3 991.5
20 17.09 СВ 2 20 км н/о +22.3 +19.9 86 +28 +28 душно 1009.6 991.8
23 17.09 С 2 20 км н/о +25.0 +20.5 76 +31 +31 очень
душно
1010.0 992.4
00 18.09 СВ 2 20 км н/о +27.3 +21.1 69 +34 +34 очень
душно
1010.1 992.6 +21.8
01 18.09 С 3 20 км н/о +29.5 +21.5 62 +37 +37 очень
душно
1010.0 992.6
02 18.09 СВ 3 20 км н/о +31.3 +21.5 56 +39 +39 очень
душно
1009.5 992.2
03 18.09 СВ 3 20 км н/о +31.6 +20.6 52 +39 +39 очень
душно
1008.7 991.5
04 18.09 СВ 4 20 км н/о +31.8 +20.4 51 +39 +39 очень
душно
1008.2 991.0
05 18.09 СВ 4 20 км н/о +31.2 +19.6 50 +37 +37 очень
душно
1007.6 990.4
06 18.09 СВ 5 20 км н/о +31.0 +19.7 51 +37 +37 очень
душно
1007.1 989.9
07 18.09 СВ 4 20 км н/о +30.2 +19.6 53 +36 +36 очень
душно
1007.2 989.9
09 18.09 СВ 3 20 км в посл. час дождь н/о +27.6 +19.7 62 +33 +33 очень
душно
1008.7 991.2
10 18.09 В 2 20 км н/о +26.8 +20.2 67 +33 +33 очень
душно
1009.2 991.7
11 18.09 СВ 2 20 км н/о +26.4 +19.8 67 +32 +32 очень
душно
1010.3 992.7
13 18.09 С 2 20 км н/о +24.9 +20.0 74 +30 +30 душно 1010.7 993.0
14 18.09 С 2 20 км н/о +24.4 +19.0 72 +29 +29 душно 1010.7 993.0
15 18.09 С 1 20 км н/о +24.0 +19.7 77 +29 +29 душно 1010.8 993.1
16 18.09 С 2 20 км н/о +23.6 +18.3 72 +28 +28 душно 1010.8 993.0
17 18.09 С 2 19 км н/о +22.3 +18.3 78 +27 +27 душно 1011.0 993.2
18 18.09 В 1 20 км н/о +22.2 +17.6 75 +27 +27 душно 1011.4 993.5
19 18.09 штиль 0 20 км н/о +20.7 +17.1 80 +24 +24 комфорт 1011.4 993.4
20 18.09 С 2 19 км н/о +20.7 +17.7 83 +25 +25 комфорт 1011.5 993.5
21 18.09 С 2 20 км н/о +20.7 +17.1 80 +25 +25 комфорт 1011.5 993.5
22 18.09 С 2 20 км н/о +21.1 +16.9 77 +25 +25 комфорт 1012.1 994.2
23 18.09 СВ 3 20 км н/о +24.7 +10.9 42 +26 +26 жарко 1012.2 994.5
00 19.09 СВ 6 20 км н/о +25.7 +12.2 43 +27 +27 жарко 1012.6 995.0 +20.3
01 19.09 СВ 6 20 км н/о +26.0 +13.8 47 +28 +28 жарко 1013.0 995.4
02 19.09 СВ 5 20 км н/о +27.2 +15.9 50 +30 +30 душно 1012.9 995.3
03 19.09 СВ 6 20 км н/о +27.6 +15.9 49 +31 +31 душно 1012.5 995.0
04 19.09 СВ 6 20 км н/о +28.0 +16.3 49 +31 +31 душно 1011.8 994.3
05 19.09 В 4 20 км н/о +28.4 +17.3 51 +32 +32 душно 1011.3 993.8
06 19.09 СВ 5 20 км н/о +27.8 +17.4 53 +32 +32 душно 1010.9 993.4
07 19.09 СВ 4 20 км н/о +27.3 +16.9 53 +31 +31 душно 1010.7 993.2
08 19.09 В 4 20 км н/о +26.8 +16.7 54 +30 +30 душно 1011.3 993.7
09 19.09 В 4 20 км н/о +25.1 +16.8 60 +29 +29 душно 1011.8 994.1
11 19.09 СВ 2 20 км н/о +23.8 +16.8 65 +27 +27 жарко 1012.9 995.1
12 19.09 С 2 20 км н/о +23.1 +17.1 69 +28 +28 душно 1013.0 995.2 +29.1
13 19.09 СВ 4 20 км н/о +23.5 +16.8 66 +27 +27 душно 1013.1 995.3
14 19.09 С 4 20 км н/о +23.1 +15.9 64 +28 +28 душно 1012.8 995.0
15 19.09 С 5 20 км н/о +22.4 +14.8 62 +26 +26 жарко 1012.6 994.7
16 19.09 СВ 4 20 км н/о +22.3 +14.7 62 +26 +26 жарко 1012.3 994.4
18 19.09 С 4 16 км слаб. дождь н/о +21.5 +16.0 71 +25 +25 комфорт 1011.3 993.4 0.0
19 19.09 С 4 12 км слаб. дождь н/о +21.5 +17.3 77 +26 +26 душно 1011.2 993.3
20 19.09 С 4 20 км в посл. час дождь н/о +21.9 +18.1 79 +27 +27 душно 1011.5 993.6
21 19.09 СВ 5 20 км {дождь} н/о +22.5 +17.9 75 +28 +28 душно 1011.9 994.1
22 19.09 СВ 5 6000 м слаб. дождь н/о +21.4 +19.3 88 +26 +26 душно 1012.6 994.7
23 19.09 СВ 5 20 км в посл. час дождь н/о +21.8 +19.7 88 +27 +27 душно 1012.8 994.9
00 20.09 СВ 6 20 км слаб. дождь н/о +22.2 +19.6 85 +28 +28 душно 1012.9 995.0 +21.0 0.0
01 20.09 СВ 5 18 км слаб. дождь н/о +21.6 +19.4 87 +27 +27 душно 1013.1 995.2
02 20.09 СВ 5 10 км слаб. дождь н/о +20.9 +19.2 90 +25 +25 комфорт 1013.3 995.3
03 20.09 СВ 6 18 км слаб. дождь н/о +21.2 +19.3 89 +26 +26 душно 1012.5 994.6
04 20.09 СВ 6 17 км слаб. дождь н/о +21.2 +19.9 92 +26 +26 душно 1012.3 994.4
05 20.09 СВ 7 20 км в посл. час дождь н/о +22.5 +18.9 80 +28 +28 душно 1012.0 994.2
06 20.09 СВ 7 20 км в посл. час дождь н/о +22.7 +18.9 79 +29 +29 очень
душно
1011.6 993.8 2
07 20.09 СВ 6 20 км н/о +21.8 +18.6 82 +27 +27 душно 1012.8 994.9
08 20.09 СВ 6 20 км н/о +21.8 +18.6 82 +27 +27 душно 1013.2 995.3
09 20.09 СВ 6 20 км н/о +21.7 +18.3 81 +26 +26 душно 1013.5 995.6
10 20.09 СВ 6 20 км н/о +21.4 +17.8 80 +26 +26 душно 1013.8 995.8
11 20.09 СВ 7 20 км н/о +21.6 +17.2 76 +26 +26 душно 1014.9 996.9
12 20.09 СВ 6 20 км н/о +21.2 +17.2 78 +25 +25 комфорт 1014.9 996.9 +22.9 2
13 20.09 СВ 6 20 км н/о +21.2 +17.0 77 +25 +25 комфорт 1014.9 996.9
14 20.09 СВ 6 20 км н/о +20.9 +16.9 78 +24 +24 комфорт 1015.1 997.1
15 20.09 СВ 7 20 км н/о +20.4 +17.0 81 +23 +23 комфорт 1014.8 996.8
16 20.09 СВ 6 20 км н/о +20.4 +17.4 83 +23 +23 комфорт 1014.8 996.8
17 20.09 СВ 7 20 км н/о +20.5 +17.5 83 +24 +24 комфорт 1014.5 996.5
18 20.09 С 6 20 км н/о +20.0 +17.8 87 +23 +23 комфорт 1013.7 995.6
19 20.09 С 7 20 км в посл. час дождь н/о +19.9 +18.0 89 +22 +22 комфорт 1013.0 995.0
20 20.09 СВ 7 20 км н/о +20.2 +18.5 90 +23 +23 комфорт 1013.0 995.0
21 20.09 С 6 20 км слаб. дождь н/о +20.3 +18.8 91 +24 +24 комфорт 1013.5 995.5
22 20.09 СВ 5 20 км в посл. час дождь н/о +21.2 +19.5 90 +26 +26 душно 1013.6 995.6
23 20.09 СВ 5 20 км н/о +22.8 +20.2 85 +29 +29 очень
душно
1013.6 995.7
00 21.09 СВ 6 20 км слаб. дождь н/о +22.7 +20.6 88 +30 +30 очень
душно
1014.1 996.2 +19.8 0.0
01 21.09 С 5 14 км слаб. дождь н/о +24.2 +21.9 87 +31 +31 очень
душно
1013.5 995.7
02 21.09 С 4 8000 м слаб. дождь н/о +25.6 +23.3 87 +34 +34 очень
душно
1012.6 994.9
03 21.09 В 3 12 км слаб. дождь н/о +27.8 +23.0 75 +37 +37 очень
душно
1012.0 994.5
04 21.09 В 5 18 км слаб. дождь н/о +29.3 +22.0 65 +38 +38 очень
душно
1011.1 993.7
06 21.09 В 5 16 км слаб. дождь н/о +28.5 +23.0 72 +38 +38 очень
душно
1009.3 991.9 1
07 21.09 В 6 14 км слаб. дождь н/о +27.8 +22.5 73 +37 +37 очень
душно
1009.4 991.9
08 21.09 В 5 18 км слаб. дождь н/о +27.9 +22.6 73 +37 +37 очень
душно
1009.6 992.1
09 21.09 ЮВ 5 18 км в посл. час дождь н/о +27.7 +22.4 73 +36 +36 очень
душно
1010.2 992.7
10 21.09 ЮВ 4 18 км в посл. час дождь н/о +27.6 +22.3 73 +36 +36 очень
душно
1010.7 993.2
11 21.09 ЮВ 4 13 км слаб. дождь н/о +25.5 +22.4 83 +33 +33 очень
душно
1010.9 993.3
13 21.09 ЮВ 8 17 км слаб. дождь н/о +28.1 +21.9 69 +36 +36 очень
душно
1010.0 992.5
14 21.09 ЮВ 4 20 км слаб. дождь н/о +27.9 +21.9 70 +36 +36 очень
душно
1009.5 992.0
15 21.09 ЮВ 5 18 км {дождь} н/о +28.0 +22.3 71 +37 +37 очень
душно
1008.7 991.3
16 21.09 ЮВ 5 19 км слаб. дождь н/о +27.8 +21.8 70 +36 +36 очень
душно
1008.4 991.0
17 21.09 ЮВ 5 20 км слаб. дождь н/о +28.1 +21.6 68 +36 +36 очень
душно
1007.9 990.5
18 21.09 ЮВ 6 19 км слаб. дождь н/о +27.9 +21.7 69 +36 +36 очень
душно
1006.8 989.4 0.0
19 21.09 ЮВ 5 16 км слаб. дождь н/о +27.3 +22.3 74 +36 +36 очень
душно
1006.3 988.9
20 21.09 ЮВ 5 7000 м слаб. дождь н/о +26.7 +22.5 78 +35 +35 очень
душно
1005.5 988.0
21 21.09 ЮВ 6 18 км слаб. дождь н/о +27.2 +22.4 75 +36 +36 очень
душно
1004.8 987.4
22 21.09 ЮВ 9 20 км в посл. час дождь н/о +26.4 +22.7 80 +35 +35 очень
душно
1005.0 987.5
23 21.09 ЮВ 8 6000 м слаб. дождь н/о +26.9 +23.4 81 +36 +36 очень
душно
1005.0 987.6
00 22.09 ЮВ 7 7000 м слаб. дождь н/о +27.4 +23.2 78 +37 +37 очень
душно
1004.3 986.9 +24.8 14
01 22.09 ЮВ 9 10 км слаб. дождь н/о +26.9 +23.6 82 +37 +37 очень
душно
1003.8 986.4
02 22.09 Ю 10 12 км слаб. дождь н/о +28.1 +23.5 76 +38 +38 очень
душно
1002.5 985.2
03 22.09 Ю 11 5000 м слаб. дождь н/о +26.8 +23.7 83 +37 +37 очень
душно
1001.8 984.4
04 22.09 Ю 10 10 км слаб. дождь н/о +26.8 +24.1 85 +37 +37 очень
душно
1001.1 983.7
05 22.09 Ю 10 16 км слаб. дождь н/о +26.7 +24.0 85 +37 +37 очень
душно
1000.6 983.2
06 22.09 Ю 7 10 км слаб. дождь н/о +26.4 +24.4 89 +37 +37 очень
душно
999.7 982.3 13
07 22.09 Ю 6 12 км слаб. дождь н/о +26.3 +24.0 87 +36 +36 очень
душно
999.7 982.3
08 22.09 Ю 7 8000 м слаб. дождь н/о +25.4 +23.6 90 +35 +35 очень
душно
1000.0 982.6
09 22.09 Ю 6 4000 м дождь н/о +25.0 +23.6 92 +34 +34 очень
душно
1000.7 983.2
10 22.09 Ю 7 20 км в посл. час дождь н/о +25.4 +23.3 88 +34 +34 очень
душно
1001.0 983.5
11 22.09 Ю 9 12 км слаб. дождь н/о +25.8 +23.1 85 +34 +34 очень
душно
1001.3 983.9
13 22.09 Ю 4 13 км слаб. дождь н/о +24.2 +23.2 94 +32 +32 очень
душно
1003.4 985.8
14 22.09 Ю 5 20 км в посл. час дождь н/о +24.2 +22.3 89 +31 +31 очень
душно
1004.0 986.4
15 22.09 Ю 5 20 км в посл. час дождь н/о +23.5 +22.0 91 +30 +30 очень
душно
1004.7 987.0
16 22.09 ЮЗ 4 8000 м слаб. дождь н/о +22.9 +21.7 93 +31 +31 очень
душно
1005.7 988.0
17 22.09 ЮЗ 4 20 км в посл. час дождь н/о +22.9 +20.8 88 +30 +30 очень
душно
1005.9 988.2
18 22.09 Ю 3 20 км в посл. час дождь н/о +22.4 +20.7 90 +29 +29 очень
душно
1006.5 988.7 0.5
19 22.09 ЮЗ 3 20 км в посл. час дождь н/о +21.9 +20.2 90 +28 +28 душно 1007.5 989.7
20 22.09 ЮЗ 2 20 км н/о +21.9 +19.8 88 +28 +28 душно 1008.5 990.7
21 22.09 ЮЗ 3 20 км {дождь} н/о +21.4 +19.5 89 +26 +26 душно 1009.1 991.2
22 22.09 Ю 2 20 км н/о +21.7 +19.8 89 +27 +27 душно 1010.0 992.1
23 22.09 З 2 20 км н/о +23.0 +19.8 82 +30 +30 очень
душно
1010.6 992.8

 

Местоположение метеостанции Мияконодзё (Япония): широта 31.73 долгота 131.08 высота над уровнем моря 156 м.

В архиве по умолчанию представлена погода в Мияконодзё за последнюю неделю. Архивные данные за месяц целиком и за предыдущие месяцы, начиная с января 2011 года, Вы можете получить, выбрав интересующий диапазон дат из раскрывающегося списка и нажав кнопку "Ввод!".


*Определитесь, кто Вы:
робот инопланетянин человек

Внимание! Время в таблицах - всемирное. Для получения местного времени необходимо прибавить поправку, которая равна 9 ч.

Смотрите также архив погоды в соседних городах и на ближайших метеорологических станциях:

Погода в Абурацу (Япония) (35 км)
Погода в Миядзаки (Япония) (38 км)
Погода в Кагосиме (Япония) (54 км)
Погода в Хитоёси (Япония) (63 км)
Погода в Макурадзаки (Япония) (90 км)
Погода в Акуне (Япония) (90 км)
Погода в Ушибуке (Япония) (99 км)
Погода в Нобеоке (Япония) (109 км)
Погода на Танегасиме (Япония) (112 км)
Погода в Кумамото (Япония) (127 км)

Пояснения к столбцам:

Ветер - указаны скорость ветра в м/с - средняя за 10 мин, порывы в срок и между сроками (в фигурных скобках) и направление, откуда дует ветер: С - северный, СВ - северо-восточный, В - восточный, ЮВ - юго-восточный, Ю - южный, ЮЗ - юго-западный, З - западный, СЗ - северо-западный.
Видимость - горизонтальная дальность видимости в метрах или километрах. При видимости от 1 до 10 км при отсутствии осадков обычно наблюдается дымка, при ухудшении видимости до 1 км и менее - туман. В сухую погоду видимость может ухудшаться дымом, пылью или мглою.
Явления - указаны атмосферные явления, наблюдавшиеся в срок или в последний час перед сроком; фигурными скобками обозначены явления, наблюдавшиеся между сроками (за 1-3 часа до срока); квадратными скобками обозначены град или гололедные отложения с указанием их диаметра в мм.
Облачность - указаны через наклонную черту общая и нижняя облачность в баллах и высота нижней границы облаков в метрах; квадратными скобками обозначены формы облаков: Ci - перистые, Cs - перисто-слоистые, Cc - перисто-кучевые, Ac - высококучевые, As - высокослоистые, Sc - слоисто-кучевые, Ns - слоисто-дождевые, Cu - кучевые, Cb - кучево-дождевые. Подробнее классификацию облаков см. в Атласе облаков (PDF).
T - Температура воздуха - температура, измеренная на высоте 2 м над землей.
Td - Температура точки росы - температура, при понижении до которой содержащийся в воздухе водяной пар достигнет насыщения.
f - Относительная влажность воздуха - влажноcть воздуха, измеренная на высоте 2 м над землей.
Te - Эффективная температура - температура, которую ощущает одетый по сезону человек в тени. Характеристика душности погоды. При расчете учитывается влияние влажности воздуха и скорости ветра на теплоощущения человека.
Tes - Эффективная температура на солнце - температура, которую ощущает человек, с поправкой на солнечный нагрев. Характеристика знойности погоды. Зависит от высоты солнца над горизонтом, облачности и скорости ветра. Ночью, в пасмурную погоду, а также при ветре 12 м/с и более поправка равна нулю.
P - Атмосферное давление - приведенное к уровню моря атмосферное давление.
Po - Атмосферное давление - измеренное на уровне метеостанции атмосферное давление.
Tmin - Минимальная температура - минимум температуры воздуха на высоте 2 м над землей.
Tmax - Максимальная температура - максимум температуры воздуха на высоте 2 м над землей.
R - Количество осадков - Количество выпавших осадков за период времени, мм. При наведении курсора мыши на число - период времени, за который выпало указанное количество осадков.
R24 - Количество осадков - Количество выпавших осадков за 24 часа, мм.
S - Снежный покров - Высота снежного покрова, см. При наведении курсора мыши на число - состояние снежного покрова и степень покрытия местности в баллах.